Find Starlink 37809

NORAD ID: 100288 Int'l Des: 2026-183 Owner: SPXS Country: US Constellation: starlink operational

Aktuelle Ansicht

3D-Globus wird geladen...

About Starlink 37809

Starlink 37809 (NORAD 100288) is a starlink constellation satellite launched Aug 11, 2026 by SPXS of US. with a mass of 575.00 kg.

Nächste Überflüge

Passes for default location (London). Set your location on the main map for personalized predictions.

Höhenverlauf

Loading altitude history...

Zweizeiliger Elementsatz

1 A0288U 26183S 26255.27581844 .00177036 00000-0 11474-2 0 9990
2 A0288 53.1570 297.7987 0004523 332.6033 27.4748 15.74981865 5016
Epoch: 12. Sept. 2026 • Age: 201 hours

Aktueller Status

Höhe 346.6 km
Apogäum / Perigäum N/A
Geschwindigkeit 7.70 km/s
Subsatellitenpunkt -38.98°S, 8.98°W
Startdatum 11. Aug. 2026
Alter 0.1 years
Typ internet

Technische Details

Klassifizierung Payload
Masse 575.00 kg
Trockenmasse 530.00 kg
Länge 0.30 m
Spannweite 29.00 m
Form ? Box + pan
Hersteller SPXS
Bus-Typ Starlink V2MO
Phasenstatus In Orbit
Besitzer/Staat SPXS/US

Most Searched